Location: Maccacari
(45.1333°N, 11.1333°E)
Time: 07:52:20
(UTC+00:00)

Cosmos 2026 Rocket - Pass Details

Date: 18 September 2020
Orbit: 940 x 1000 km, 82.9° (Epoch: 29 October)

Event Time Altitude Azimuth Distance (km) Brightness Sun altitude
Rises 19:56:57 0° 350° (N) 3,716 7.6 -26.9°
Reaches altitude 10° 19:59:29 10° 350° (N) 2,769 6.9 -27.3°
Maximum altitude 20:05:52 83° 264° (W) 1,012 4.0 -28.2°
Enters shadow 20:06:55 64° 189° (S) 1,100 4.0 -28.4°
